Zurück zum Katalog

COSMOS 1275 DEB

AktivPO
NORAD 42198·DEBRIS·🇷🇺 Russia

Gestartet Jun 4, 1981 von Plesetsk Cosmodrome

Loading…

Nächste Überflüge (nächste 24 Stunden)

TLE

AktuellSource: Space-Track

Epoche: Sep 14, 2026, 03:55 UTC

1 42198U 81053TN  26257.16322442  .00000755  00000-0  58258-3 0  9995
2 42198  82.8026 207.9632 0042504 103.0297 257.5618 13.91218153649072

Verfolge COSMOS 1275 DEB in Echtzeit mit AllMySat

Download on the App Store